Flag for Germany Weather past 2 weeks in Kempten, Bavaria, Germany

Now
70 °F

Overcast.


Feels Like: 76 °F
Forecast: 56 / 86 °F
Wind: 2 mph from South

Location: Kempten

Current Time: Aug 28, 2015 at 10:24:47 AM

Latest Report: Aug 28, 2015 at 10:00 AM


Visibility: 19 mi

Pressure: 30.04 "Hg (27.78 "Hg at 673m altitude)

Humidity: 60%

Dew point: 56 °F

Location of KemptenLocation

Historic Weather in Kempten — Graph

°F

Kempten temperature yesterday

Maximum temperature yesterday: 83 °F (at 3:00 PM)
Minimum temperature yesterday: 55 °F (at 7:00 AM)
Average temperature yesterday: 69 °F

Past Weeks' High & Low Weather Summary

 TemperatureHumidityPressure
High90 °F (Aug 13, 6:00 PM)100% (Aug 20, 6:00 AM)30.31 "Hg (Aug 20, 6:00 AM)
Low45 °F (Aug 21, 6:00 AM)27% (Aug 13, 2:00 PM)29.66 "Hg (Aug 24, 2:00 PM)
Average62 °F77%29.97 "Hg
* Reported Aug 13 9:00 AM — Aug 28 9:00 AM, Kempten, Weather by CustomWeather, © 2015

Note: Actual official high and low records may vary slightly from our data, if they occured in-between our weather recording intervals... More about our weather records

Advertising

Kempten weather history for previous 24 hours

 ConditionsComfort  
Time TempWeatherWind HumidityBarometerVisibility
9:00 AM
Fri, Aug 28
64 °FOvercast.2 mph71%30.06 "Hg17 mi
8:00 AM62 °FOvercast.2 mph75%30.05 "Hg18 mi
7:00 AM57 °FScattered clouds.2 mph86%30.06 "Hg18 mi
6:00 AM57 °FClear.1 mph84%30.04 "Hg18 mi
5:00 AM57 °FClear.3 mph84%30.03 "Hg19 mi
4:00 AM61 °FClear.1 mph73%30.00 "Hg28 mi
3:00 AM61 °FPassing clouds.2 mph73%29.98 "Hg22 mi
2:00 AM61 °FClear.2 mph72%29.97 "Hg25 mi
1:00 AM63 °FPassing clouds.2 mph71%29.96 "Hg25 mi
10:00 PM
Thu, Aug 27
62 °FClear.2 mph87%29.94 "Hg19 mi
9:00 PM67 °FClear.2 mph77%29.90 "Hg22 mi
8:00 PM74 °FSunny.2 mph66%29.86 "Hg28 mi
7:00 PM81 °FSunny.1 mph49%29.82 "Hg31 mi
6:00 PM79 °FScattered clouds.1 mph47%29.84 "Hg25 mi
4:00 PM83 °FSunny.2 mph35%29.84 "Hg25 mi
3:00 PM83 °FSunny.1 mph36%29.84 "Hg19 mi
2:00 PM82 °FSunny.2 mph38%29.85 "Hg25 mi
1:00 PM80 °FSunny.2 mph36%29.88 "Hg16 mi
12:00 PM78 °FSunny.1 mph42%29.89 "Hg25 mi
11:00 AM74 °FSunny.2 mph44%29.92 "Hg22 mi
10:00 AM69 °FSunny.2 mph61%29.96 "Hg19 mi
Weather by CustomWeather, © 2015

See weather overviewHow to use our weather pages